KLM661 EHAM-KIAH

Flight info

Callsign KLM661
Flight time N/A
Altitude 33000
Route BERGI L602 SUPUR P1 BINBO/N0474F340 DCT ROKAN/N0477F330 DCT ROLUM/N0481F320 DCT RODSI/N0474F340 DCT UPNAL DCT MADAD DCT LAMMA DCT ETSOM DCT ERAKA/M083F340 DCT 60N020W 61N030W 61N040W 59N050W/M084F360 DCT AVUTI/N0480F360 DCT DUVBI DCT QUBIS/N0478F380 DCT KAYCC DCT KYLOH DCT BAF Q448 PTW J48 CSN DCT FANPO Q40 AEX DOOBI3
Aircraft A333/H-SDE3GHIJ2J3J5M1RVWXY/LB2D1

Departure

Time 2026-04-29 11:39
Airport Amsterdam Airport Schiphol (EHAM)

Arrival

Time N/A
Airport George Bush Intercontinental Airport (KIAH)
Time Latitude Longitude Altitude Speed Heading
2026-04-29 10:56 52.31263 4.76058 2 ft 0 kts 109°
2026-04-29 10:56 52.31201 4.76096 3 ft 0 kts 88°
2026-04-29 11:20 52.31200 4.76071 2 ft 4 kts 86°
2026-04-29 11:20 52.31199 4.76027 2 ft 4 kts 88°
2026-04-29 11:21 52.31199 4.75983 4 ft 4 kts 103°
2026-04-29 11:21 52.31209 4.75952 2 ft 2 kts 156°
2026-04-29 11:21 52.31233 4.75939 2 ft 4 kts 175°
2026-04-29 11:21 52.31257 4.75937 2 ft 1 kts 177°
2026-04-29 11:22 52.31281 4.75935 2 ft 4 kts 177°
2026-04-29 11:22 52.31308 4.75933 2 ft 4 kts 177°
2026-04-29 11:22 52.31335 4.75931 2 ft 4 kts 177°
2026-04-29 11:22 52.31362 4.75929 2 ft 4 kts 177°
2026-04-29 11:23 52.31389 4.75926 2 ft 4 kts 175°
2026-04-29 11:23 52.31414 4.75921 2 ft 4 kts 159°
2026-04-29 11:23 52.31435 4.75899 3 ft 4 kts 123°
2026-04-29 11:23 52.31442 4.75863 3 ft 3 kts 86°
2026-04-29 11:24 52.31440 4.75819 3 ft 4 kts 86°
2026-04-29 11:24 52.31438 4.75775 3 ft 4 kts 86°
2026-04-29 11:24 52.31437 4.75731 3 ft 4 kts 86°
2026-04-29 11:24 52.31435 4.75687 3 ft 4 kts 86°
2026-04-29 11:25 52.31435 4.75679 3 ft 0 kts 86°
2026-04-29 11:27 52.31436 4.75707 3 ft 4 kts 85°
2026-04-29 11:27 52.31455 4.75764 3 ft 7 kts 41°
2026-04-29 11:28 52.31507 4.75766 3 ft 9 kts 331°
2026-04-29 11:28 52.31519 4.75663 2 ft 11 kts 266°
2026-04-29 11:28 52.31514 4.75512 2 ft 14 kts 266°
2026-04-29 11:28 52.31508 4.75344 2 ft 15 kts 266°
2026-04-29 11:29 52.31503 4.75167 2 ft 16 kts 267°
2026-04-29 11:29 52.31496 4.74982 3 ft 17 kts 266°
2026-04-29 11:29 52.31489 4.74790 3 ft 17 kts 266°
2026-04-29 11:29 52.31482 4.74592 3 ft 18 kts 267°
2026-04-29 11:30 52.31476 4.74395 3 ft 15 kts 268°
2026-04-29 11:30 52.31541 4.74299 3 ft 14 kts 352°
2026-04-29 11:30 52.31633 4.74305 3 ft 14 kts
2026-04-29 11:30 52.31747 4.74317 3 ft 18 kts
2026-04-29 11:31 52.31875 4.74329 3 ft 18 kts
2026-04-29 11:31 52.31996 4.74326 3 ft 16 kts 335°
2026-04-29 11:31 52.32032 4.74174 2 ft 15 kts 274°
2026-04-29 11:31 52.32040 4.73978 1 ft 19 kts 273°
2026-04-29 11:32 52.32047 4.73749 3 ft 21 kts 273°
2026-04-29 11:32 52.32057 4.73492 3 ft 24 kts 274°
2026-04-29 11:32 52.32152 4.73268 3 ft 25 kts 318°
2026-04-29 11:32 52.32286 4.73079 3 ft 25 kts 319°
2026-04-29 11:33 52.32415 4.72899 3 ft 24 kts 319°
2026-04-29 11:33 52.32532 4.72730 3 ft 22 kts 319°
2026-04-29 11:33 52.32647 4.72571 3 ft 21 kts 319°
2026-04-29 11:33 52.32744 4.72402 3 ft 20 kts 311°
2026-04-29 11:34 52.32833 4.72237 3 ft 19 kts 311°
2026-04-29 11:34 52.32919 4.72080 3 ft 18 kts 311°
2026-04-29 11:34 52.32999 4.71931 3 ft 17 kts 311°
2026-04-29 11:34 52.33077 4.71786 3 ft 17 kts 311°
2026-04-29 11:35 52.33144 4.71628 3 ft 16 kts 285°
2026-04-29 11:35 52.33109 4.71470 4 ft 15 kts 224°
2026-04-29 11:35 52.33035 4.71359 3 ft 14 kts 221°
2026-04-29 11:35 52.32962 4.71254 3 ft 14 kts 221°
2026-04-29 11:36 52.32895 4.71155 4 ft 12 kts 223°
2026-04-29 11:36 52.32869 4.71084 2 ft 5 kts 251°
2026-04-29 11:36 52.32866 4.71062 2 ft 0 kts 259°
2026-04-29 11:36 52.32866 4.71060 2 ft 2 kts 259°
2026-04-29 11:37 52.32862 4.70993 2 ft 10 kts 274°
2026-04-29 11:37 52.32875 4.70917 2 ft 5 kts 300°
2026-04-29 11:37 52.32905 4.70896 1 ft 5 kts
2026-04-29 11:37 52.32947 4.70900 1 ft 7 kts
2026-04-29 11:38 52.33129 4.70916 -1 ft 50 kts
2026-04-29 11:38 52.33628 4.70967 4 ft 92 kts
2026-04-29 11:38 52.34402 4.71040 -1 ft 129 kts
2026-04-29 11:38 52.35392 4.71131 27 ft 157 kts
2026-04-29 11:39 52.36481 4.71202 327 ft 162 kts
2026-04-29 11:39 52.37547 4.71315 870 ft 148 kts
2026-04-29 11:39 52.38580 4.71443 1189 ft 151 kts 10°
2026-04-29 11:39 52.39630 4.71635 1469 ft 153 kts 12°
2026-04-29 11:40 52.40675 4.71896 1790 ft 151 kts 15°
2026-04-29 11:40 52.41685 4.72276 2152 ft 147 kts 21°
2026-04-29 11:40 52.42668 4.72688 2497 ft 149 kts 11°
2026-04-29 11:40 52.43703 4.72354 2751 ft 160 kts 335°
2026-04-29 11:41 52.44541 4.71094 3030 ft 166 kts 317°
2026-04-29 11:41 52.45238 4.69580 3330 ft 167 kts 306°
2026-04-29 11:41 52.45723 4.67885 3679 ft 166 kts 291°
2026-04-29 11:41 52.45896 4.66023 3979 ft 165 kts 267°
2026-04-29 11:42 52.46024 4.64260 4158 ft 152 kts 316°